This is the latest recevied weather packets stored in our database for station/object VK3BYD-3. If no packets are shown the sender has not sent any weather packets the latest 10 day(s).
| Time | Temp. | Humidity | Pressure | Rain* | Wind** | Luminosity | Snow |
|---|---|---|---|---|---|---|---|
| 1778162751 | 8.33° C | 92% | 1022 hPa | 0 mm | - | - | - |
| 1778161851 | 7.78° C | 93% | 1021.9 hPa | 0 mm | - | - | - |
| 1778160950 | 7.78° C | 93% | 1022.1 hPa | 0 mm | - | - | - |
| 1778160051 | 7.22° C | 93% | 1022.1 hPa | 0 mm | - | - | - |
| 1778159151 | 7.22° C | 92% | 1022.2 hPa | 0 mm | - | - | - |
| 1778158251 | 7.78° C | 93% | 1022.2 hPa | 0 mm | - | - | - |
| 1778157345 | 7.22° C | 93% | 1022.4 hPa | 0 mm | - | - | - |
| 1778156445 | 7.22° C | 93% | 1022.5 hPa | 0 mm | - | - | - |
| 1778155542 | 7.22° C | 93% | 1022.6 hPa | 0 mm | - | - | - |
| 1778154643 | 7.22° C | 93% | 1022.8 hPa | 0 mm | - | - | - |
| 1778153743 | 6.67° C | 93% | 1022.8 hPa | 0 mm | - | - | - |
| 1778152842 | 6.67° C | 94% | 1022.7 hPa | 0 mm | - | - | - |
| 1778151940 | 6.67° C | 94% | 1022.6 hPa | 0 mm | - | - | - |
| 1778151040 | 6.11° C | 93% | 1022.8 hPa | 0 mm | - | - | - |
| 1778150141 | 5.56° C | 93% | 1022.8 hPa | 0 mm | - | - | - |
| 1778149239 | 5.56° C | 91% | 1022.7 hPa | 0 mm | - | - | - |
| 1778148338 | 5.56° C | 91% | 1022.5 hPa | 0 mm | - | - | - |
| 1778147437 | 6.11° C | 89% | 1022.7 hPa | 0 mm | - | - | - |
| 1778146534 | 6.67° C | 87% | 1022.5 hPa | 0 mm | - | - | - |
| 1778145633 | 7.22° C | 87% | 1022.4 hPa | 0 mm | - | - | - |
| 1778144730 | 7.22° C | 87% | 1022.3 hPa | 0 mm | - | - | - |
| 1778143831 | 7.78° C | 87% | 1022.3 hPa | 0 mm | - | - | - |
| 1778142930 | 7.22° C | 87% | 1022.3 hPa | 0 mm | - | - | - |
| 1778142031 | 7.22° C | 87% | 1022.2 hPa | 0 mm | - | - | - |
| 1778141130 | 7.22° C | 85% | 1022.1 hPa | 0 mm | - | - | - |
* Rain latest hour (hover to see other rain measurements)
** Current wind speed in m/s (hover to see current wind gust speed)